EW1043 Weather Reports


Display with metric or nautical units.
time (UTC)temp
F
wind
direction
speed
MPH
gust
MPH
rain 1hr
in
rain 24hr
in
rain mn
in
humidity
%
barometer
mb
20260510093006 65 86 0.0 0.0 0.00 2.31 0.01 97 1012.9
20260510091505 65 86 0.0 0.0 0.00 2.31 0.01 97 1012.8
20260510090005 65 86 0.0 0.0 0.00 2.31 0.01 97 1012.7
20260510084504 65 86 0.0 0.0 0.00 2.31 0.01 97 1012.7
20260510083008 65 86 0.0 0.0 0.00 2.31 0.01 97 1012.7
20260510081503 66 86 0.0 0.0 0.01 2.31 0.01 97 1012.7
20260510080001 65 86 0.0 0.0 0.01 2.31 0.01 97 1012.5
20260510074607 66 86 0.0 0.0 0.01 2.31 0.01 97 1012.4
20260510073100 66 86 0.0 0.0 0.01 2.31 0.01 97 1012.4
20260510071603 66 86 0.0 0.0 0.00 2.31 0.00 97 1012.2
20260510070109 66 356 0.0 0.0 0.00 2.31 0.00 97 1012.3
20260510064602 66 356 0.0 0.0 0.00 2.31 0.00 96 1012.2
20260510063100 67 61 0.0 0.0 0.00 2.31 0.00 96 1012.1
20260510061554 67 60 0.0 0.0 0.00 2.31 0.00 96 1012.3
20260510060054 67 316 0.0 0.0 0.00 2.31 0.00 96 1012.6
20260510054559 67 309 0.0 2.0 0.00 2.31 0.00 96 1012.7
20260510053050 67 310 0.0 4.0 0.00 2.31 0.00 96 1012.7
20260510051548 68 63 0.0 0.0 0.00 2.31 0.00 96 1012.4
20260510050046 68 33 0.0 1.0 0.00 2.31 2.31 96 1012.2
20260510044549 68 159 0.0 7.0 0.00 2.31 2.31 96 1011.7
20260510043045 68 160 2.0 6.0 0.00 2.31 2.31 97 1011.5
20260510041550 68 181 3.0 7.0 0.00 2.31 2.31 97 1011.7
20260510040043 68 205 2.0 8.0 0.00 2.31 2.31 97 1012.2
20260510034547 68 189 2.0 7.0 0.00 2.31 2.31 97 1012.5
20260510033058 68 236 2.0 7.0 0.00 2.31 2.31 97 1012.4
20260510031544 68 175 0.0 0.0 0.00 2.31 2.31 97 1012.9
20260510030042 68 212 0.0 0.0 0.00 2.31 2.31 97 1013.4
20260510024544 68 153 0.0 0.0 0.00 2.31 2.31 97 1013.3
20260510023044 68 336 0.0 0.0 0.00 2.31 2.31 97 1013.2
20260510021542 68 336 0.0 0.0 0.00 2.31 2.31 97 1013.2
20260510020040 69 336 0.0 0.0 0.00 2.31 2.31 97 1013.0
20260510014539 68 336 0.0 0.0 0.00 2.31 2.31 97 1012.9
20260510013041 68 98 0.0 0.0 0.00 2.31 2.31 97 1012.9
20260510011539 68 131 0.0 0.0 0.00 2.31 2.31 97 1012.5
20260510010037 68 131 0.0 3.0 0.00 2.31 2.31 97 1012.3
20260510004537 68 120 1.0 0.0 0.00 0.00 2.31 97 1011.9
20260510003052 68 140 0.0 7.0 0.00 2.31 2.31 97 1011.9
20260510001542 68 153 0.0 4.0 0.00 2.31 2.31 97 1011.5
20260510000041 68 127 0.0 3.0 0.00 2.31 2.31 97 1011.7
20260509234544 68 141 0.0 2.0 0.01 2.31 2.31 97 1011.5
20260509233034 68 143 0.0 3.0 0.01 2.31 2.31 97 1011.7
20260509231534 68 77 0.0 2.0 0.01 2.31 2.31 97 1011.5
20260509230033 68 77 0.0 0.0 0.03 2.73 2.31 97 1011.7
20260509224532 68 275 0.0 1.0 0.04 2.72 2.29 97 1012.2
20260509223032 68 288 1.0 2.0 0.06 2.72 2.29 97 1012.1
20260509221533 67 243 0.0 0.0 0.11 2.72 2.29 97 1011.7
20260509220030 67 83 0.0 0.0 0.10 2.73 2.27 97 1011.3
20260509214537 67 82 0.0 0.0 0.09 2.71 2.25 97 1011.7
20260509213034 67 82 0.0 0.0 0.06 2.68 2.23 97 1011.7
20260509211530 67 282 0.0 0.0 0.02 2.64 2.19 97 1012.2
20260509210031 67 238 0.0 0.0 0.01 2.76 2.18 97 1011.8
20260509204537 67 135 0.0 3.0 0.01 2.75 2.17 97 1011.5
20260509203028 67 77 1.0 6.0 0.03 2.75 2.17 97 1011.2
20260509201528 66 103 1.0 6.0 0.05 2.75 2.17 97 1011.2
20260509200036 66 88 1.0 4.0 0.07 3.93 2.17 97 1011.6
20260509194536 66 88 0.0 0.0 0.10 3.92 2.16 97 1011.9
20260509193035 66 131 0.0 0.0 0.21 3.90 2.14 97 1012.7
20260509191526 66 79 0.0 2.0 0.27 3.88 2.12 97 1012.9
20260509190027 66 119 0.0 3.0 0.28 3.86 2.10 97 1012.9
20260509184523 66 136 0.0 4.0 0.44 3.82 2.06 97 1012.9
20260509183027 66 171 1.0 4.0 0.32 3.68 1.92 97 1013.4
20260509181522 66 109 1.0 5.0 0.25 3.61 1.85 97 1012.7
20260509180021 66 94 2.0 5.0 0.22 3.57 1.81 97 1012.4
20260509174521 66 109 0.0 4.0 0.04 3.38 1.62 97 1013.1
20260509173020 67 89 1.0 6.0 0.05 3.36 1.60 97 1012.6
20260509171524 67 197 0.0 6.0 0.06 3.36 1.60 97 1013.2
20260509170020 67 115 2.0 7.0 0.07 3.35 1.59 97 1012.7
20260509164520 67 100 2.0 10.0 0.27 3.34 1.58 97 1013.0
20260509163021 67 110 1.0 6.0 0.38 3.31 1.55 97 1013.1
20260509161519 67 88 3.0 12.0 0.40 3.29 1.53 97 1012.6
20260509160020 67 91 2.0 11.0 0.56 3.28 1.52 97 1013.3
20260509154519 67 94 1.0 4.0 0.50 3.06 1.30 97 1013.3
20260509153021 67 67 4.0 9.0 0.45 2.93 1.17 97 1013.1
20260509151517 66 77 2.0 7.0 0.44 2.88 1.12 97 1013.1
20260509150019 66 86 1.0 9.0 0.32 2.71 0.95 97 1013.0
20260509144516 66 90 1.0 5.0 0.18 2.56 0.80 97 1013.3
20260509143020 65 94 1.0 5.0 0.11 2.48 0.72 97 1013.0
20260509141515 65 91 0.0 4.0 0.15 2.44 0.68 97 1012.9
20260509140013 65 79 1.0 5.0 0.24 2.38 0.62 97 1012.6
20260509134512 65 75 1.0 5.0 0.62 2.38 0.62 96 1012.4
20260509133012 65 72 0.0 4.0 0.60 2.36 0.60 96 1012.9
20260509131524 65 88 2.0 5.0 0.53 2.29 0.53 96 1013.4
20260509130016 66 155 1.0 9.0 0.38 2.14 0.38 95 1013.7
20260509124503 69 232 6.0 21.0 0.00 1.76 0.00 92 1012.8
20260509123002 72 250 0.0 2.0 0.00 1.76 0.00 95 1011.2
20260509121612 72 225 0.0 3.0 0.00 1.76 0.00 95 1010.7
20260509120057 71 92 0.0 4.0 0.00 1.76 0.00 95 1010.4
20260509114555 71 158 1.0 4.0 0.00 1.76 0.00 95 1010.4
20260509113058 71 157 0.0 3.0 0.00 1.76 0.00 95 1010.3
20260509111600 71 210 1.0 4.0 0.00 1.76 0.00 95 1010.0
20260509110052 71 195 0.0 0.0 0.00 1.76 0.00 95 1009.9
20260509104551 71 212 0.0 0.0 0.00 1.76 0.00 95 1010.0
20260509103049 71 212 0.0 0.0 0.00 1.76 0.00 96 1009.8
20260509101550 70 142 0.0 0.0 0.00 1.76 0.00 95 1009.5
20260509100048 70 142 0.0 1.0 0.00 1.76 0.00 95 1009.4
20260509094551 70 131 0.0 0.0 0.00 1.76 0.00 95 1009.2